| Date | Temp | Humidity | Rainfall | Dew Point | Wind Direction | Wind Speed | Wind Pressure | Condition | Visibility |
|---|---|---|---|---|---|---|---|---|---|
| 2025-03-02 23:00:59 | 28 | 87 | 25 | 020 | 13.3 | 1009 | Partly Cloudy (Night) | 10 KM | |
| 2025-03-02 22:00:32 | 28 | 88 | 26 | 020 | 9.5 | 1008 | Partly Cloudy (Night) | 10 KM | |
| 2025-03-02 21:01:14 | 28 | 86 | 0.0 | 25 | 050 | 10 | 1008 | Cloudy | 10 km |
| 2025-03-02 20:01:49 | 28 | 86 | 0.0 | 25 | 020 | 10 | 1008 | Lightning | 10 km |
| 2025-03-02 19:01:25 | 28 | 84 | 0.0 | 25 | 360 | 10 | 1007 | Lightning | 10 km |
| 2025-03-02 18:01:22 | 28 | 85 | 0.0 | 25 | 360 | 10 | 1006 | Distant showers | 10 km |
| 2025-03-02 17:02:43 | 29 | 80 | 0 | 25 | 350 | 13.3 | 1006 | Partly Cloudy (Day) | 10 KM |
| 2025-03-02 16:00:48 | 30 | 75 | 0 | 25 | 340 | 17.1 | 1006 | Partly Cloudy (Day) | 20 KM |
| 2025-03-02 15:01:37 | 31 | 76 | 0 | 26 | 330 | 19.0 | 1006 | Partly Cloudy (Day) | 20 KM |
| 2025-03-02 14:01:19 | 31 | 72 | 0 | 25 | 350 | 15.2 | 1007 | Cloudy | 20 KM |
| 2025-03-02 12:59:12 | 31 | 71 | 25 | 340 | 11.4 | 1008 | Partly Cloudy (Day) | 20 KM | |
| 2025-03-02 11:59:33 | 30 | 69 | 25 | 340 | 7.6 | 1009 | Partly Cloudy (Day) | 20 KM | |
| 2025-03-02 11:03:19 | 29 | 79 | 25 | 310 | 11.4 | 1010 | Partly Cloudy (Day) | 20 KM | |
| 2025-03-02 10:01:04 | 29 | 81 | 0.0 | 25 | 220 | 3.8 | 1010 | Partly Cloudy (Day) | 10 KM |
| 2025-03-02 09:02:05 | 27 | 89 | 0.0 | 25 | 230 | 5.7 | 1010 | Partly Cloudy (Day) | 10 KM |
| 2025-03-02 07:59:38 | 26 | 94 | 0.00 | 25 | 130 | 1.9 | 1010 | Partly Cloudy (Day) | 10KM |
| 2025-03-02 07:00:41 | 25 | 96 | 0.00 | 24 | 230 | 1.9 | 1009 | Light Haze | 10KM |
| 2025-03-02 06:00:25 | 25 | 95 | 0.00 | 25 | 220 | 5.7 | 1009 | Light Haze | 10KM |
| 2025-03-02 04:59:09 | 26 | 94 | 0.00 | 25 | 190 | 7.5 | 1008 | Light Haze | 9KM |
| 2025-03-02 03:59:57 | 26 | 95 | 0.00 | 25 | 190 | 11.4 | 1008 | Light Haze | 9KM |
| 2025-03-02 02:59:26 | 26 | 96 | 0.00 | 26 | 190 | 5.7 | 1008 | Partly Cloudy (Day) | 9KM |
| 2025-03-02 02:00:10 | 27 | 94 | 0.0 | 26 | 030 | 5.7 | 1009 | Cloudy | 10 km |
| 2025-03-02 01:00:33 | 26 | 96 | 0.0 | 26 | 180 | 1.9 | 1010 | Cloudy | 10 km |
| 2025-03-02 00:02:26 | 26 | 96 | 0.0 | 25 | 000 | 0.0 | 1010 | Partly Cloudy (Night) | 10 km |
| 2025-03-01 23:00:53 | 26 | 95 | 0.0 | 25 | 220 | 1.9 | 1010 | Partly Cloudy (Night) | 10 km |